Regional Weather Roundup
Issued by NWS Bismarck, ND

Home | Current Version | Previous Version | Text Only | Print | Product List | Glossary On
Versions: 1 2 3 4 5 6 7 8 9 10 11 12 13 14 15 16 17 18 19 20 21 22 23 24 25 26 27 28 29 30 31 32 33 34 35 36 37 38 39 40 41 42 43 44 45 46 47 48 49 50
000
ASUS43 KBIS 280410
RWRBIS

NWR BROADCAST TEXT
NATIONAL WEATHER SERVICE BISMARCK ND
1100 PM CDT WED MAY 27 2015

NOTE: "FAIR" INDICATES FEW OR NO CLOUDS BELOW 12,000 FEET WITH NO
SIGNIFICANT WEATHER AND/OR OBSTRUCTIONS TO VISIBILITY.


CITY           SKY/WX    TMP DP  RH WIND       PRES   REMARKS
WILLISTON      CLOUDY    61  54  77 CALM      29.92R
MINOT          LGT RAIN  61  55  81 NW3       29.94S
MINOT AFB      NOT AVBL
BISMARCK       LGT RAIN  62  58  86 NW7       29.99R FOG
DICKINSON      CLOUDY    55  54  96 S6        29.90S
GARRISON         N/A     60  57  89 E8        29.94F
HETTINGER ARPT FOG       53  52  96 CALM      29.96R VSB 3/4
JAMESTOWN      CLOUDY    66  53  63 SW14      30.01R
BEACH          FAIR      52  52 100 S5        29.95R
CARRINGTON     MOCLDY    63  63 100 S15G23    30.03R FOG
CROSBY         CLOUDY    57  57 100 E9        29.96R
HARVEY         MOCLDY    59  57  94 SE14      29.99F
HAZEN          LGT RAIN  59  57  94 SE6       29.94F
LINTON         CLOUDY    63  57  82 SE7       29.96S
MANDAN         LGT RAIN  59  59 100 N3        29.99S
OAKES            N/A     66  59  77 E13       29.98R
STANLEY        CLOUDY    57  57 100 E6        29.96R
WATFORD CITY   MOCLDY    57  57 100 CALM      29.90R
$$

CITY           SKY/WX    TMP DP  RH WIND       PRES   REMARKS
GRAND FORKS    MOCLDY    61  50  67 CALM      29.99R
GRAND FORKS AF NOT AVBL
DEVILS LAKE    CLOUDY    63  54  72 NE6       29.99F
FARGO          CLOUDY    68  55  63 NW12      29.99S
CANDO          FAIR      64  48  55 SE13      30.00R
CAVALIER       FAIR      63  41  45 NE5       30.01R
GRAFTON        FAIR      61  46  59 NE5       30.01S
LANGDON        FAIR      61  43  51 E12       30.00F
ROLLA          FAIR      61  43  51 SE10      30.01S
WALHALLA         N/A     61  39  44 MISG      30.01R
$$

CITY           SKY/WX    TMP DP  RH WIND       PRES   REMARKS
ABERDEEN       CLOUDY    65  57  75 SE8       29.96S
MOBRIDGE       LGT RAIN  63  60  90 SE16      29.93S
BUFFALO          N/A     56  54  93 NE7       29.90R
RAPID CITY     CLEAR     61  52  72 W5        29.93R
GLASGOW        CLOUDY    62  55  77 SE7       29.88S
SIDNEY         MOCLDY    55  52  88 CALM      29.92R
WOLF POINT     CLOUDY    62  55  77 E3        29.90R
GLENDIVE       CLOUDY    57  54  88 CALM      29.94R
MILES CITY     PTCLDY    57  55  93 W3        29.92R
BAKER          PTCLDY    54  52  93 S9        29.95R
$$

CITY           SKY/WX    TMP DP  RH WIND       PRES   REMARKS
BILLINGS       MOCLDY    55  47  74 W12       29.98R
GREAT FALLS    MOCLDY    55  47  74 N3        29.98R
REGINA         PTCLDY    61  48  63 S7        29.95R
ESTEVAN        LGT RAIN  59  55  88 NE8       29.96R
$$




USA.gov is the U.S. government's official web portal to all federal, state and local government web resources and services.